• în Republica Moldova
  • Lista ţărilor
  • Pe 7 zile
  • Temperatura apei
  • Hartă satelitară
  • Meteo pe hartă
  • Widget-uri
  • user-avatar
    Intrare

    Meteo pe oră la Eisenstadt

    Astăzi, 12 Decembrie, Marţi

    Timp Temperatura Precipitaţii Vânt Presiune Umiditate
    00:00 +7°C° 0 mm 8 m/s 708 mmHg 82%
    01:00 +7°C° 0 mm 8 m/s 708 mmHg 81%
    02:00 +8°C° 0 mm 7 m/s 708 mmHg 80%
    03:00 +8°C° 0 mm 7 m/s 708 mmHg 79%
    04:00 +8°C° 0 mm 7 m/s 709 mmHg 78%
    05:00 +8°C° 0 mm 6 m/s 710 mmHg 79%
    06:00 +7°C° 0 mm 5 m/s 711 mmHg 80%
    07:00 +7°C° 0 mm 4 m/s 712 mmHg 80%
    08:00 +7°C° 0,1 mm 4 m/s 713 mmHg 80%
    09:00 +8°C° 0,1 mm 3 m/s 714 mmHg 80%
    10:00 +8°C° 0,1 mm 3 m/s 715 mmHg 80%
    11:00 +8°C° 0,1 mm 3 m/s 715 mmHg 79%
    12:00 +8°C° 0,1 mm 3 m/s 716 mmHg 77%
    13:00 +8°C° 0,1 mm 3 m/s 717 mmHg 76%
    14:00 +7°C° 0,1 mm 3 m/s 717 mmHg 76%
    15:00 +5°C° 0,1 mm 3 m/s 718 mmHg 77%
    16:00 +4°C° 0,1 mm 3 m/s 718 mmHg 77%
    17:00 +4°C° 0,4 mm 3 m/s 719 mmHg 77%
    18:00 +3°C° 0,4 mm 4 m/s 719 mmHg 77%
    19:00 +1°C° 0,4 mm 4 m/s 720 mmHg 77%
    20:00 +1°C° 0,5 mm 4 m/s 721 mmHg 77%
    21:00 +1°C° 0,5 mm 4 m/s 721 mmHg 77%
    22:00 0°C° 0,5 mm 4 m/s 722 mmHg 77%
    23:00 0°C° 0,5 mm 4 m/s 723 mmHg 78%

    Mâine, 13 Decembrie, Miercuri

    Timp Temperatura Precipitaţii Vânt Presiune Umiditate
    00:00 0°C° 0,5 mm 4 m/s 723 mmHg 79%
    01:00 +1°C° 0,5 mm 3 m/s 724 mmHg 80%
    02:00 0°C° 0,2 mm 3 m/s 724 mmHg 81%
    03:00 0°C° 0,2 mm 3 m/s 724 mmHg 81%
    04:00 +1°C° 0,2 mm 2 m/s 724 mmHg 82%
    05:00 +1°C° 0 mm 2 m/s 724 mmHg 83%
    06:00 -1°C° 0 mm 2 m/s 725 mmHg 84%
    07:00 -1°C° 0 mm 2 m/s 725 mmHg 85%
    08:00 +1°C° 0 mm 2 m/s 725 mmHg 82%
    09:00 +1°C° 0 mm 2 m/s 725 mmHg 80%
    10:00 +3°C° 0 mm 1 m/s 725 mmHg 77%
    11:00 +3°C° 0 mm 1 m/s 725 mmHg 75%
    12:00 +4°C° 0 mm 1 m/s 724 mmHg 73%
    13:00 +4°C° 0 mm 1 m/s 724 mmHg 70%
    14:00 +3°C° 0 mm 2 m/s 723 mmHg 75%
    15:00 +2°C° 0 mm 2 m/s 722 mmHg 80%
    16:00 +1°C° 0 mm 2 m/s 722 mmHg 85%
    17:00 -1°C° 0 mm 3 m/s 722 mmHg 86%
    18:00 -1°C° 0 mm 3 m/s 721 mmHg 87%
    19:00 -1°C° 0 mm 3 m/s 721 mmHg 88%
    20:00 -1°C° 0 mm 3 m/s 720 mmHg 88%
    21:00 -2°C° 0 mm 3 m/s 720 mmHg 88%
    22:00 -3°C° 0 mm 4 m/s 719 mmHg 88%
    23:00 -3°C° 0 mm 4 m/s 718 mmHg 87%

    Poimâine, 14 Decembrie, Joi

    Timp Temperatura Precipitaţii Vânt Presiune Umiditate
    00:00 -2°C° 0 mm 4 m/s 718 mmHg 87%
    01:00 -2°C° 0 mm 4 m/s 717 mmHg 86%
    02:00 -2°C° 0 mm 4 m/s 716 mmHg 86%
    03:00 -2°C° 0 mm 4 m/s 716 mmHg 86%
    04:00 -2°C° 0 mm 4 m/s 715 mmHg 86%
    05:00 -1°C° 0 mm 3 m/s 715 mmHg 85%
    06:00 -1°C° 0 mm 3 m/s 714 mmHg 83%
    07:00 0°C° 0 mm 3 m/s 714 mmHg 82%
    08:00 0°C° 0 mm 3 m/s 714 mmHg 80%
    09:00 +1°C° 0 mm 3 m/s 714 mmHg 79%
    10:00 +2°C° 0 mm 3 m/s 715 mmHg 77%
    11:00 +4°C° 0 mm 2 m/s 715 mmHg 76%
    12:00 +4°C° 0 mm 2 m/s 715 mmHg 76%
    13:00 +5°C° 0 mm 2 m/s 715 mmHg 75%
    14:00 +5°C° 0,4 mm 1 m/s 714 mmHg 78%
    15:00 +4°C° 0,4 mm 1 m/s 714 mmHg 82%
    16:00 +4°C° 0,4 mm 1 m/s 714 mmHg 86%
    17:00 +3°C° 0,8 mm 1 m/s 714 mmHg 87%
    18:00 +2°C° 0,8 mm 2 m/s 714 mmHg 89%
    19:00 +2°C° 0,8 mm 2 m/s 714 mmHg 91%
    20:00 +2°C° 0,7 mm 2 m/s 713 mmHg 91%
    21:00 +2°C° 0,7 mm 2 m/s 713 mmHg 91%
    22:00 +1°C° 0,7 mm 3 m/s 712 mmHg 91%
    23:00 +1°C° 0,2 mm 3 m/s 712 mmHg 91%

    15 Decembrie, Vineri

    Timp Temperatura Precipitaţii Vânt Presiune Umiditate
    00:00 +1°C° 0,2 mm 4 m/s 711 mmHg 91%
    01:00 +1°C° 0,2 mm 4 m/s 710 mmHg 90%
    02:00 +1°C° 0,1 mm 4 m/s 710 mmHg 90%
    03:00 +2°C° 0,1 mm 3 m/s 710 mmHg 89%
    04:00 +2°C° 0,1 mm 3 m/s 710 mmHg 89%
    05:00 +3°C° 0 mm 2 m/s 711 mmHg 88%
    06:00 +2°C° 0 mm 2 m/s 711 mmHg 86%
    07:00 +2°C° 0 mm 2 m/s 711 mmHg 85%
    08:00 +3°C° 0 mm 1 m/s 712 mmHg 83%
    09:00 +4°C° 0 mm 1 m/s 712 mmHg 81%
    10:00 +4°C° 0 mm 1 m/s 712 mmHg 78%
    11:00 +4°C° 0,1 mm 1 m/s 712 mmHg 78%
    12:00 +5°C° 0,1 mm 1 m/s 712 mmHg 78%
    13:00 +5°C° 0,1 mm 1 m/s 712 mmHg 78%
    14:00 +4°C° 0,1 mm 1 m/s 712 mmHg 80%
    15:00 +4°C° 0,1 mm 1 m/s 712 mmHg 82%
    16:00 +3°C° 0,1 mm 1 m/s 712 mmHg 84%
    17:00 +3°C° 0,3 mm 1 m/s 712 mmHg 85%
    18:00 +3°C° 0,3 mm 1 m/s 712 mmHg 86%
    19:00 +3°C° 0,3 mm 1 m/s 712 mmHg 87%
    20:00 +3°C° 0,1 mm 1 m/s 712 mmHg 87%
    21:00 +2°C° 0,1 mm 1 m/s 712 mmHg 87%
    22:00 +2°C° 0,1 mm 1 m/s 712 mmHg 86%
    23:00 +2°C° 0 mm 1 m/s 712 mmHg 85%

    16 Decembrie, Sâmbătă

    Timp Temperatura Precipitaţii Vânt Presiune Umiditate
    00:00 +2°C° 0 mm 1 m/s 712 mmHg 85%
    01:00 +2°C° 0 mm 1 m/s 712 mmHg 84%
    02:00 +2°C° 0 mm 1 m/s 712 mmHg 83%
    03:00 +2°C° 0 mm 1 m/s 712 mmHg 83%
    04:00 +2°C° 0 mm 1 m/s 712 mmHg 82%
    05:00 +1°C° 0 mm 2 m/s 713 mmHg 82%
    06:00 +1°C° 0 mm 2 m/s 713 mmHg 83%
    07:00 +1°C° 0 mm 2 m/s 714 mmHg 83%
    08:00 0°C° 0 mm 3 m/s 714 mmHg 81%
    09:00 +1°C° 0 mm 3 m/s 715 mmHg 79%
    10:00 +1°C° 0 mm 3 m/s 715 mmHg 77%
    11:00 +1°C° 0 mm 4 m/s 716 mmHg 73%
    12:00 +1°C° 0 mm 4 m/s 716 mmHg 69%
    13:00 +1°C° 0 mm 5 m/s 716 mmHg 65%
    14:00 0°C° 0 mm 4 m/s 717 mmHg 68%
    15:00 0°C° 0 mm 3 m/s 717 mmHg 70%
    16:00 -1°C° 0 mm 2 m/s 717 mmHg 73%
    17:00 -1°C° 0 mm 2 m/s 718 mmHg 75%
    18:00 -1°C° 0 mm 2 m/s 719 mmHg 77%
    19:00 0°C° 0 mm 1 m/s 719 mmHg 79%
    20:00 0°C° 0 mm 1 m/s 720 mmHg 80%
    21:00 0°C° 0 mm 1 m/s 720 mmHg 80%
    22:00 0°C° 0 mm 1 m/s 720 mmHg 81%
    23:00 0°C° 0 mm 1 m/s 721 mmHg 81%

    17 Decembrie, Duminică

    Timp Temperatura Precipitaţii Vânt Presiune Umiditate
    00:00 0°C° 0 mm 1 m/s 721 mmHg 82%
    01:00 -1°C° 0 mm 1 m/s 721 mmHg 82%
    02:00 -1°C° 0 mm 1 m/s 721 mmHg 81%
    03:00 -1°C° 0 mm 1 m/s 721 mmHg 81%
    04:00 -1°C° 0 mm 1 m/s 721 mmHg 81%
    05:00 -1°C° 0 mm 1 m/s 721 mmHg 80%
    06:00 -1°C° 0 mm 1 m/s 722 mmHg 80%
    07:00 -1°C° 0 mm 1 m/s 722 mmHg 80%
    08:00 0°C° 0 mm 1 m/s 722 mmHg 76%
    09:00 +1°C° 0 mm 1 m/s 723 mmHg 73%
    10:00 +2°C° 0 mm 1 m/s 723 mmHg 70%
    11:00 +1°C° 0 mm 2 m/s 723 mmHg 67%
    12:00 +2°C° 0 mm 2 m/s 723 mmHg 65%
    13:00 +2°C° 0 mm 2 m/s 723 mmHg 62%
    14:00 +2°C° 0 mm 2 m/s 723 mmHg 67%
    15:00 +2°C° 0 mm 1 m/s 723 mmHg 71%
    16:00 +1°C° 0 mm 1 m/s 723 mmHg 76%
    17:00 0°C° 0 mm 1 m/s 724 mmHg 77%
    18:00 -2°C° 0 mm 2 m/s 724 mmHg 78%
    19:00 -2°C° 0 mm 2 m/s 725 mmHg 80%
    20:00 -3°C° 0 mm 2 m/s 725 mmHg 80%
    21:00 -3°C° 0 mm 2 m/s 725 mmHg 80%
    22:00 -3°C° 0 mm 2 m/s 726 mmHg 81%
    23:00 -3°C° 0 mm 2 m/s 726 mmHg 81%
    Arată mai mult